Location: Burzi?i
(45.0869°N, 16.0577°E)
Time: 11:47:37
(UTC+00:00)

Cosmos 1980 Rocket - Pass Details

Date: 29 October 2020
Orbit: 831 x 848 km, 71.0° (Epoch: 27 November)

Event Time Altitude Azimuth Distance (km) Brightness Sun altitude
Rises 17:29:37 0° 187° (S) 3,376 5.4 -18.5°
Reaches altitude 10° 17:32:07 10° 182° (S) 2,444 4.6 -19.0°
Maximum altitude 17:37:29 49° 109° (ESE) 1,070 2.3 -19.9°
Enters shadow 17:39:34 33° 56° (ENE) 1,371 2.9 -20.3°
